sat.trackr.live / text

‹ back to catalog

POLYTECH UNIVERSE-4

NORAD 61747 · 2024-199N

PAYLOAD ACTIVE UNKNOWN

§ Identity

Operator
Country
CIS
Launch date
2024-11-04
Launch site
VOSTO
Launch vehicle
Mass (kg)
RCS (m²)

External: N2YO · Heavens-Above · Gunter

§ Orbital elements

Epoch: 2026-09-22T21:41:09.683520Z

Period
92.97 min
Inclination
97.2824°
Eccentricity
0.0006175
Mean motion
15.48821157 rev/d
Perigee alt
416.0 km
Apogee alt
424.4 km
Semi-major
6,798.3 km
B*
2.8561e-4
RAAN
139.7560°
Arg perigee
286.2141°
Mean anomaly
73.8430°
Rev number
15,247

§ Raw data

POLYTECH UNIVERSE-41 61747U 24199N   26265.90358430  .00015285  00000+0  28561-3 0  99982 61747  97.2824 139.7560 0006175 286.2141  73.8430 15.48821157152479

JSON: /api/v1/satellites/61747 · /tle

For live sub-satellite position, see the globe view (requires WebGL).

§ Visibility from observer

Set your observer location to see the next 7 days of passes ≥ 10°. The values pass through the URL so the page stays shareable.

No JS? Fill the form by hand. The geolocation button needs JavaScript.